EW4918 Weather Reports


time (UTC)temp
C
wind
direction
speed
KPH
gust
KPH
rain 1hr
cm
rain 24hr
cm
rain mn
cm
humidity
%
barometer
mb
20260507000518 6 272 0.0 0.0 0.00 1.96 1.78 94 1009.0
20260507000017 6 272 0.0 0.0 0.00 1.96 1.78 94 1009.0
20260506235516 6 272 0.0 0.0 0.00 1.96 1.78 94 1009.1
20260506235016 6 272 0.0 0.0 0.00 1.96 1.78 93 1009.2
20260506234516 6 271 0.0 0.0 0.00 1.96 1.78 93 1009.2
20260506234015 6 271 0.0 0.0 0.00 1.96 1.78 93 1009.1
20260506233515 6 269 0.0 0.0 0.00 1.96 1.78 93 1009.0
20260506233014 6 282 0.0 0.0 0.00 1.96 1.78 94 1009.0
20260506232514 6 288 0.0 3.2 0.00 1.96 1.78 94 1009.0
20260506232013 6 281 0.0 0.0 0.00 1.96 1.78 94 1008.8
20260506231518 6 280 0.0 0.0 0.00 1.96 1.78 94 1008.8
20260506231017 6 281 0.0 0.0 0.00 1.96 1.78 94 1008.5
20260506230517 6 281 0.0 1.6 0.00 1.96 1.78 94 1008.3
20260506225515 6 281 0.0 0.0 0.00 1.96 1.78 94 1008.5
20260506225014 6 281 0.0 0.0 0.00 1.96 1.78 94 1008.5
20260506224513 6 325 0.0 0.0 0.00 1.96 1.78 94 1008.3
20260506224013 6 325 0.0 0.0 0.00 1.96 1.78 94 1008.2
20260506223512 6 325 0.0 0.0 0.00 1.96 1.78 94 1008.2
20260506223018 6 325 0.0 0.0 0.00 1.96 1.78 94 1008.1
20260506222015 6 324 0.0 0.0 0.00 1.96 1.78 94 1008.1
20260506221018 6 323 0.0 0.0 0.00 1.96 1.78 94 1007.9
20260506220517 6 323 0.0 0.0 0.00 1.96 1.78 94 1007.9
20260506220017 6 323 0.0 0.0 0.00 1.96 1.78 94 1007.9
20260506215516 6 323 0.0 0.0 0.00 1.96 1.78 94 1007.9
20260506215016 6 323 0.0 0.0 0.00 1.96 1.78 94 1007.9
20260506214515 6 322 0.0 0.0 0.00 1.96 1.78 95 1007.9
20260506214015 6 321 0.0 0.0 0.00 1.96 1.78 95 1007.9
20260506213514 6 321 0.0 0.0 0.00 1.96 1.78 95 1007.8
20260506213014 6 311 0.0 0.0 0.00 1.96 1.78 95 1007.9
20260506212017 6 335 0.0 0.0 0.00 1.96 1.78 95 1007.7
20260506211529 6 329 0.0 0.0 0.00 1.96 1.78 95 1007.5
20260506211015 6 330 0.0 0.0 0.00 1.96 1.78 95 1007.6
20260506210514 6 327 0.0 0.0 0.00 1.96 1.78 95 1007.7
20260506210013 6 328 0.0 0.0 0.00 1.96 1.78 95 1007.7
20260506205513 6 333 0.0 0.0 0.00 1.96 1.78 94 1007.7
20260506205018 6 342 0.0 0.0 0.00 1.96 1.78 94 1007.7
20260506204518 6 355 0.0 0.0 0.00 1.96 1.78 94 1007.5
20260506204017 6 315 0.0 0.0 0.00 1.96 1.78 95 1007.5
20260506203517 6 315 0.0 0.0 0.00 1.96 1.78 96 1007.4
20260506203016 6 315 0.0 1.6 0.00 1.96 1.78 95 1007.4
20260506202515 6 315 0.0 0.0 0.00 1.96 1.78 95 1007.5
20260506202015 6 292 0.0 0.0 0.00 1.96 1.78 95 1007.4
20260506201515 6 286 0.0 0.0 0.00 1.96 1.78 95 1007.5
20260506201013 6 327 0.0 0.0 0.00 1.96 1.78 95 1007.5
20260506200017 7 283 0.0 6.4 0.00 1.96 1.78 96 1007.6
20260506195516 7 298 0.0 0.0 0.00 1.96 1.78 96 1007.5
20260506195015 7 12 0.0 0.0 0.00 1.96 1.78 95 1007.5
20260506194515 7 355 0.0 0.0 0.00 1.96 1.78 96 1007.4
20260506194014 7 355 0.0 0.0 0.00 1.96 1.78 96 1007.3
20260506193514 6 355 0.0 0.0 0.00 1.96 1.78 96 1007.3
20260506193013 6 355 0.0 0.0 0.00 1.96 1.78 95 1007.3
20260506192513 6 355 0.0 0.0 0.00 1.96 1.78 95 1007.4
20260506192012 6 355 0.0 0.0 0.00 1.96 1.78 95 1007.4
20260506191518 6 360 0.0 0.0 0.00 1.98 1.78 95 1007.3
20260506191017 6 360 0.0 0.0 0.00 1.98 1.78 95 1007.3
20260506190516 6 360 0.0 0.0 0.00 1.96 1.75 95 1007.0
20260506190016 6 360 0.0 0.0 0.00 1.96 1.75 95 1007.2
20260506185515 6 355 0.0 0.0 0.00 1.98 1.75 95 1007.2
20260506185015 6 355 0.0 0.0 0.00 1.98 1.75 95 1007.2
20260506184514 6 355 0.0 0.0 0.00 2.01 1.73 95 1007.2
20260506184014 6 355 0.0 0.0 0.00 2.11 1.73 95 1007.2
20260506183513 6 355 0.0 0.0 0.00 2.16 1.73 95 1007.0
20260506183013 6 360 0.0 0.0 0.00 2.16 1.73 96 1007.0
20260506182016 6 350 0.0 0.0 0.00 2.16 1.73 96 1006.9
20260506181516 6 350 0.0 0.0 0.00 2.16 1.73 96 1006.9
20260506180512 6 350 0.0 0.0 0.00 2.16 1.73 96 1007.1
20260506180018 6 350 0.0 0.0 0.00 2.16 1.73 96 1007.0
20260506175517 6 350 0.0 0.0 0.00 2.16 1.73 96 1007.0
20260506175017 6 348 0.0 0.0 0.00 2.16 1.73 97 1007.0
20260506174516 6 348 0.0 0.0 0.00 2.16 1.73 97 1007.0
20260506174016 6 348 0.0 0.0 0.00 2.16 1.73 97 1007.1
20260506173515 6 348 0.0 0.0 0.00 2.16 1.73 97 1007.2
20260506173014 6 26 0.0 0.0 0.00 2.16 1.73 97 1007.2
20260506172514 6 28 0.0 0.0 0.00 2.16 1.73 97 1007.2
20260506172014 6 28 0.0 0.0 0.00 2.16 1.73 97 1007.2
20260506170012 5 28 0.0 0.0 0.00 2.16 1.73 97 1007.5
20260506165518 5 28 0.0 0.0 0.00 2.13 1.70 97 1007.6
20260506165018 5 29 0.0 0.0 0.00 2.13 1.70 97 1007.6
20260506163513 5 30 0.0 0.0 0.00 2.16 1.70 97 1007.7
20260506163013 5 30 0.0 0.0 0.00 2.13 1.68 97 1007.7
20260506162512 5 30 0.0 1.6 0.00 2.11 1.65 97 1007.8
20260506162017 5 29 0.0 0.0 0.00 2.11 1.65 97 1007.8
20260506161014 5 5 0.0 0.0 0.00 2.06 1.60 97 1008.0
20260506160513 5 15 0.0 0.0 0.00 2.03 1.57 97 1007.8
20260506160018 5 16 0.0 0.0 0.00 2.01 1.55 97 1007.8
20260506155518 5 16 0.0 0.0 0.00 2.01 1.55 97 1007.7
20260506155017 5 16 0.0 0.0 0.00 1.98 1.52 97 1007.8
20260506154517 5 16 0.0 0.0 0.00 1.96 1.50 97 1007.9
20260506154016 5 15 0.0 0.0 0.00 1.96 1.50 97 1007.7
20260506153516 5 17 0.0 0.0 0.00 1.93 1.47 97 1007.7
20260506153015 5 17 0.0 0.0 0.00 1.91 1.45 97 1007.7
20260506152515 5 17 0.0 0.0 0.00 1.88 1.42 97 1007.5
20260506152014 5 24 0.0 0.0 0.00 1.85 1.40 97 1007.8
20260506151514 5 36 0.0 0.0 0.00 1.85 1.40 97 1007.7
20260506151012 5 36 0.0 0.0 0.00 1.83 1.37 97 1007.8
20260506150517 5 36 0.0 0.0 0.00 1.80 1.35 97 1008.0
20260506150017 5 36 0.0 0.0 0.00 1.78 1.32 97 1007.9
20260506145517 5 36 0.0 0.0 0.00 1.75 1.30 97 1007.8
20260506145016 5 36 0.0 0.0 0.00 1.73 1.27 97 1007.9
20260506144515 4 36 0.0 0.0 0.00 1.70 1.24 97 1008.2
20260506144015 4 36 0.0 1.6 0.00 1.68 1.22 96 1008.2
20260506143514 4 29 0.0 0.0 0.00 1.65 1.19 96 1008.0
20260506142512 5 336 0.0 0.0 0.00 1.60 1.14 97 1008.0
20260506142012 4 336 0.0 0.0 0.00 1.57 1.12 97 1008.0
20260506141512 4 336 0.0 0.0 0.00 1.55 1.09 97 1008.0
20260506140514 4 336 0.0 0.0 0.00 1.52 1.07 97 1007.8
20260506140014 4 336 0.0 0.0 0.00 1.50 1.04 97 1007.9
20260506135513 4 335 0.0 0.0 0.00 1.47 1.02 96 1008.0
20260506135013 4 335 0.0 0.0 0.00 1.45 0.99 96 1008.0
20260506134512 4 335 0.0 0.0 0.00 1.42 0.97 96 1007.8
20260506134018 4 334 0.0 0.0 0.00 1.40 0.94 96 1008.0
20260506133518 4 44 0.0 0.0 0.00 1.37 0.91 96 1007.9
20260506133017 4 44 0.0 0.0 0.00 1.35 0.89 96 1007.6
20260506132516 4 44 0.0 0.0 0.00 1.32 0.86 96 1007.4
20260506131514 4 44 0.0 0.0 0.00 1.30 0.84 96 1007.5
20260506131012 4 44 0.0 0.0 0.00 1.30 0.84 96 1007.6
20260506130016 4 44 0.0 0.0 0.00 1.24 0.79 96 1007.8
20260506125516 4 44 0.0 0.0 0.00 1.22 0.76 96 1007.8
20260506125015 4 45 0.0 0.0 0.00 1.19 0.74 96 1007.9
20260506124515 4 287 0.0 0.0 0.00 1.19 0.74 96 1007.7
20260506124014 4 269 0.0 0.0 0.00 1.19 0.74 96 1007.6
20260506123013 4 268 0.0 0.0 0.00 1.17 0.71 97 1007.3
20260506122512 4 268 0.0 0.0 0.00 1.17 0.71 96 1007.6
20260506122018 4 268 0.0 0.0 0.00 1.14 0.69 96 1007.6
20260506121517 4 268 0.0 0.0 0.00 1.14 0.69 96 1007.9
20260506121016 4 268 0.0 0.0 0.00 1.12 0.66 96 1008.2
20260506120515 4 268 0.0 0.0 0.00 1.12 0.66 96 1008.4
20260506120014 4 268 0.0 0.0 0.00 1.09 0.64 96 1008.2
20260506115514 4 268 0.0 0.0 0.00 1.07 0.61 96 1008.4
20260506115013 4 268 0.0 0.0 0.00 1.04 0.58 96 1008.5
20260506114017 4 268 0.0 0.0 0.00 1.02 0.56 96 1008.6
20260506113015 4 268 0.0 0.0 0.00 0.97 0.51 96 1008.7
20260506112514 4 268 0.0 0.0 0.00 0.94 0.48 96 1008.7
20260506112014 4 268 0.0 0.0 0.00 0.91 0.46 96 1008.6
20260506111513 5 268 0.0 0.0 0.00 0.89 0.43 96 1008.6
20260506111013 5 268 0.0 0.0 0.00 0.89 0.43 96 1008.5
20260506110517 5 267 0.0 0.0 0.00 0.86 0.41 96 1008.7
20260506110017 5 267 0.0 0.0 0.00 0.84 0.38 96 1008.8
20260506105516 5 267 0.0 1.6 0.00 0.84 0.38 96 1008.5
20260506105016 5 267 0.0 0.0 0.00 0.81 0.36 96 1008.2
20260506104515 5 267 0.0 0.0 0.00 0.81 0.36 96 1008.3
20260506104015 5 267 0.0 0.0 0.00 0.79 0.33 96 1008.0
20260506103514 5 267 0.0 0.0 0.00 0.79 0.33 96 1007.6
20260506103014 5 267 0.0 0.0 0.00 0.79 0.33 96 1007.9
20260506102513 5 267 0.0 0.0 0.00 0.79 0.33 96 1008.0
20260506102013 5 267 0.0 0.0 0.00 0.76 0.30 96 1008.0
20260506101512 5 267 0.0 0.0 0.00 0.76 0.30 96 1008.0
20260506101018 5 267 0.0 0.0 0.00 0.76 0.30 96 1008.1
20260506100014 5 267 0.0 0.0 0.00 0.74 0.28 95 1008.2
20260506095513 5 267 0.0 0.0 0.00 0.71 0.25 95 1008.2
20260506095012 5 267 0.0 0.0 0.00 0.71 0.25 96 1008.3
20260506094512 5 267 0.0 0.0 0.00 0.69 0.23 96 1008.3
20260506093516 5 267 0.0 0.0 0.00 0.66 0.20 95 1008.1
20260506093015 5 267 0.0 0.0 0.00 0.66 0.20 95 1008.3
20260506092515 5 267 0.0 0.0 0.00 0.66 0.20 95 1008.1
20260506092014 5 267 0.0 0.0 0.00 0.66 0.20 95 1008.0
20260506091018 5 267 0.0 0.0 0.00 0.66 0.20 95 1008.2
20260506090516 5 267 0.0 0.0 0.00 0.66 0.20 95 1008.2
20260506090015 5 267 0.0 0.0 0.00 0.64 0.18 95 1008.5
20260506085515 5 267 0.0 0.0 0.00 0.64 0.18 95 1008.3
20260506085014 5 267 0.0 0.0 0.00 0.64 0.18 95 1008.3
20260506084514 5 267 0.0 0.0 0.00 0.64 0.18 95 1008.3
20260506084013 5 267 0.0 0.0 0.00 0.64 0.18 96 1008.2
20260506083512 6 267 0.0 0.0 0.00 0.64 0.18 95 1008.3
20260506083012 6 267 0.0 0.0 0.00 0.64 0.18 95 1008.4
20260506082517 6 267 0.0 0.0 0.00 0.64 0.15 95 1008.3
20260506081515 6 267 0.0 0.0 0.00 0.64 0.15 95 1008.3
20260506080512 6 267 0.0 0.0 0.00 0.61 0.13 95 1008.5
20260506073514 6 267 0.0 0.0 0.00 0.61 0.13 94 1008.0
20260506073013 6 267 0.0 0.0 0.00 0.61 0.13 94 1007.9
20260506072513 6 267 0.0 0.0 0.00 0.61 0.13 94 1008.0
20260506072012 6 267 0.0 0.0 0.00 0.61 0.13 94 1008.2
20260506071016 6 267 0.0 0.0 0.00 0.61 0.13 94 1008.5
20260506070514 6 267 0.0 0.0 0.00 0.61 0.13 94 1008.4
20260506062512 6 273 0.0 0.0 0.00 0.61 0.13 91 1008.5
20260506062018 6 273 0.0 0.0 0.00 0.61 0.13 91 1008.8
20260506061517 6 300 0.0 0.0 0.00 0.61 0.13 92 1008.6
20260506061017 6 279 0.0 0.0 0.00 0.61 0.13 92 1008.7
20260506060515 6 248 0.0 0.0 0.00 0.61 0.13 93 1008.8
20260506051017 7 233 0.0 0.0 0.00 0.56 0.08 94 1008.4
20260506050515 7 233 0.0 0.0 0.00 0.56 0.08 94 1008.5
20260506045013 8 261 0.0 0.0 0.00 0.56 0.08 95 1008.9
20260506044512 8 281 0.0 0.0 0.00 0.56 0.08 95 1008.9
20260506043014 8 242 0.0 0.0 0.00 0.56 0.08 95 1008.9
20260506042012 8 242 0.0 0.0 0.00 0.53 0.05 95 1008.7
20260506041517 8 242 0.0 0.0 0.00 0.53 0.05 95 1008.5
20260506041017 8 242 0.0 0.0 0.00 0.51 0.03 94 1008.4
20260506040540 8 242 0.0 0.0 0.00 0.51 0.03 94 1008.6
20260506040014 8 260 0.0 0.0 0.00 0.48 0.00 95 1008.6
20260506034516 8 262 0.0 0.0 0.00 0.48 0.48 94 1008.2
20260506034015 8 263 0.0 0.0 0.00 0.46 0.46 94 1008.2
20260506033515 8 263 0.0 0.0 0.00 0.46 0.46 94 1008.0
20260506033014 8 263 0.0 0.0 0.00 0.46 0.46 94 1007.7
20260506032514 8 263 0.0 0.0 0.00 0.46 0.46 94 1008.0
20260506032013 8 263 0.0 0.0 0.00 0.46 0.46 94 1008.1
20260506031011 8 263 0.0 0.0 0.00 0.43 0.43 93 1007.9
20260506030517 8 263 0.0 0.0 0.00 0.43 0.43 93 1008.0
20260506030015 8 263 0.0 0.0 0.00 0.43 0.43 92 1008.0
20260506025514 9 266 0.0 0.0 0.00 0.41 0.41 92 1008.1
20260506024512 9 267 0.0 0.0 0.00 0.38 0.38 92 1008.0
20260506024012 9 284 0.0 0.0 0.00 0.38 0.38 91 1008.2
20260506023517 9 272 0.0 0.0 0.00 0.38 0.38 91 1008.2
20260506023017 9 272 0.0 0.0 0.00 0.38 0.38 91 1008.3
20260506022015 9 275 0.0 0.0 0.00 0.36 0.36 90 1008.2
20260506021013 10 275 0.0 0.0 0.00 0.36 0.36 89 1008.2
20260506020016 10 274 0.0 0.0 0.00 0.33 0.33 89 1008.0
20260506015515 10 275 0.0 0.0 0.00 0.33 0.33 88 1008.0
20260506015014 10 275 0.0 0.0 0.00 0.33 0.33 86 1008.0
20260506014514 10 277 0.0 0.0 0.00 0.33 0.33 85 1007.9
20260506014013 10 277 0.0 0.0 0.00 0.33 0.33 84 1007.9
20260506013017 11 215 0.0 1.6 0.00 0.33 0.33 82 1007.9
20260506012516 11 272 0.0 0.0 0.00 0.33 0.33 81 1008.0
20260506012016 11 292 0.0 1.6 0.00 0.33 0.33 78 1007.8
20260506011515 12 287 0.0 0.0 0.00 0.30 0.30 76 1007.7
20260506011015 12 288 0.0 0.0 0.00 0.30 0.30 74 1007.8
20260506010514 12 275 0.0 1.6 0.00 0.30 0.30 73 1007.4
20260506005516 12 240 0.0 1.6 0.00 0.30 0.30 70 1007.4
20260506005016 12 290 0.0 1.6 0.00 0.30 0.30 71 1007.3
20260506004515 13 325 3.2 17.7 0.00 0.30 0.30 72 1007.2
20260506004015 13 292 0.0 0.0 0.00 0.30 0.30 71 1007.0
20260506003514 13 298 6.4 14.5 0.00 0.30 0.30 71 1006.9
20260506003013 13 253 6.4 14.5 0.00 0.30 0.30 70 1006.6
20260506002512 13 284 0.0 0.0 0.00 0.30 0.30 74 1006.5
20260506002012 13 252 4.8 17.7 0.00 0.30 0.30 73 1006.5
20260506001511 14 257 3.2 6.4 0.00 0.30 0.30 76 1006.3
20260506001017 14 250 0.0 0.0 0.00 0.30 0.30 76 1005.9